| time (UTC) | temp C | wind direction | speed KPH | gust KPH | rain 1hr cm | rain 24hr cm | rain mn cm | humidity % | barometer mb |
| 20260502163611 | 19 | 292 | 4.8 | 0.0 | 0.00 | 0.00 | 0.00 | 31 | 1014.2 |
| 20260502163412 | 19 | 270 | 4.8 | 0.0 | 0.00 | 0.00 | 0.00 | 31 | 1014.1 |
| 20260502163210 | 19 | 270 | 4.8 | 0.0 | 0.00 | 0.00 | 0.00 | 31 | 1014.2 |
| 20260502163009 | 19 | 270 | 0.0 | 0.0 | 0.00 | 0.00 | 0.00 | 31 | 1014.2 |
| 20260502162807 | 19 | 270 | 0.0 | 0.0 | 0.00 | 0.00 | 0.00 | 31 | 1014.3 |
| 20260502162611 | 20 | 248 | 1.6 | 0.0 | 0.00 | 0.00 | 0.00 | 31 | 1014.2 |
| 20260502162310 | 20 | 270 | 0.0 | 0.0 | 0.00 | 0.00 | 0.00 | 31 | 1014.3 |
| 20260502162110 | 20 | 270 | 0.0 | 0.0 | 0.00 | 0.00 | 0.00 | 31 | 1014.4 |
| 20260502161910 | 20 | 270 | 1.6 | 0.0 | 0.00 | 0.00 | 0.00 | 30 | 1014.3 |
| 20260502161711 | 20 | 292 | 0.0 | 0.0 | 0.00 | 0.00 | 0.00 | 30 | 1014.4 |
| 20260502161407 | 20 | 292 | 4.8 | 0.0 | 0.00 | 0.00 | 0.00 | 30 | 1014.4 |
| 20260502161209 | 20 | 248 | 1.6 | 0.0 | 0.00 | 0.00 | 0.00 | 30 | 1014.3 |
| 20260502161010 | 20 | 270 | 0.0 | 0.0 | 0.00 | 0.00 | 0.00 | 30 | 1014.3 |
| 20260502160811 | 20 | 270 | 0.0 | 0.0 | 0.00 | 0.00 | 0.00 | 30 | 1014.4 |
| 20260502160610 | 20 | 292 | 0.0 | 0.0 | 0.00 | 0.00 | 0.00 | 30 | 1014.4 |
| 20260502160412 | 20 | 292 | 0.0 | 0.0 | 0.00 | 0.00 | 0.00 | 30 | 1014.4 |
| 20260502160206 | 20 | 270 | 1.6 | 0.0 | 0.00 | 0.00 | 0.00 | 33 | 1014.3 |
| 20260502152309 | 26 | 248 | 6.4 | 0.0 | 0.00 | 0.00 | 0.00 | 26 | 1014.7 |
| 20260502152107 | 26 | 248 | 4.8 | 0.0 | 0.00 | 0.00 | 0.00 | 26 | 1014.6 |
| 20260502151910 | 26 | 292 | 93.3 | 0.0 | 0.00 | 0.00 | 0.00 | 24 | 1014.6 |
| 20260502151711 | 26 | 292 | 93.3 | 0.0 | 0.00 | 0.00 | 0.00 | 24 | 1014.6 |
| 20260502151512 | 27 | 270 | 0.0 | 0.0 | 0.00 | 0.00 | 0.00 | 23 | 1014.7 |
| 20260502151215 | 27 | 248 | 0.0 | 0.0 | 0.00 | 0.00 | 0.00 | 22 | 1014.6 |
| 20260502151014 | 27 | 270 | 0.0 | 0.0 | 0.00 | 0.00 | 0.00 | 21 | 1014.7 |
| 20260502150823 | 28 | 248 | 3.2 | 0.0 | 0.00 | 0.00 | 0.00 | 21 | 1014.7 |
| 20260502150610 | 28 | 270 | 1.6 | 0.0 | 0.00 | 0.00 | 0.00 | 22 | 1014.8 |
| 20260502150411 | 30 | 248 | 0.0 | 0.0 | 0.00 | 0.00 | 0.00 | 22 | 1014.8 |
| 20260502150208 | 30 | 248 | 0.0 | 0.0 | 0.00 | 0.00 | 0.00 | 20 | 1014.7 |
| 20260502130606 | 27 | 135 | 1.6 | 0.0 | 0.00 | 0.00 | 0.00 | 21 | 1016.4 |
| 20260502130411 | 27 | 158 | 1.6 | 0.0 | 0.00 | 0.00 | 0.00 | 21 | 1016.4 |
| 20260502130210 | 27 | 135 | 8.0 | 0.0 | 0.00 | 0.00 | 0.00 | 20 | 1016.5 |
| 20260502123810 | 28 | 68 | 0.0 | 0.0 | 0.00 | 0.00 | 0.00 | 21 | 1016.5 |
| 20260502123609 | 28 | 68 | 0.0 | 0.0 | 0.00 | 0.00 | 0.00 | 21 | 1016.6 |
| 20260502123412 | 28 | 158 | 0.0 | 0.0 | 0.00 | 0.00 | 0.00 | 20 | 1016.6 |
| 20260502123207 | 28 | 158 | 1.6 | 0.0 | 0.00 | 0.00 | 0.00 | 21 | 1016.7 |
| 20260502123008 | 29 | 225 | 95.0 | 0.0 | 0.00 | 0.00 | 0.00 | 21 | 1016.6 |
| 20260502122910 | 29 | 68 | 0.0 | 0.0 | 0.00 | 0.00 | 0.00 | 21 | 1016.6 |
| 20260502122707 | 29 | 158 | 1.6 | 0.0 | 0.00 | 0.00 | 0.00 | 22 | 1016.8 |
| 20260502122510 | 29 | 45 | 1.6 | 0.0 | 0.00 | 0.00 | 0.00 | 22 | 1016.8 |
| 20260502122308 | 29 | 135 | 0.0 | 0.0 | 0.00 | 0.00 | 0.00 | 21 | 1016.8 |
| 20260502122111 | 29 | 135 | 0.0 | 0.0 | 0.00 | 0.00 | 0.00 | 21 | 1016.9 |
| 20260502121910 | 29 | 112 | 0.0 | 0.0 | 0.00 | 0.00 | 0.00 | 22 | 1017.1 |
| 20260502121710 | 29 | 158 | 0.0 | 0.0 | 0.00 | 0.00 | 0.00 | 21 | 1017.1 |
| 20260502121509 | 29 | 158 | 0.0 | 0.0 | 0.00 | 0.00 | 0.00 | 20 | 1017.1 |
| 20260502121411 | 29 | 158 | 0.0 | 0.0 | 0.00 | 0.00 | 0.00 | 21 | 1017.1 |
| 20260502121210 | 29 | 112 | 4.8 | 0.0 | 0.00 | 0.00 | 0.00 | 21 | 1017.1 |
| 20260502121008 | 29 | 112 | 3.2 | 0.0 | 0.00 | 0.00 | 0.00 | 21 | 1017.1 |
| 20260502120824 | 30 | 112 | 3.2 | 0.0 | 0.00 | 0.00 | 0.00 | 21 | 1017.2 |
| 20260502120607 | 30 | 112 | 3.2 | 0.0 | 0.00 | 0.00 | 0.00 | 21 | 1017.2 |
| 20260502120411 | 30 | 90 | 0.0 | 0.0 | 0.00 | 0.00 | 0.00 | 21 | 1017.2 |
| 20260502120207 | 30 | 90 | 0.0 | 0.0 | 0.00 | 0.00 | 0.00 | 22 | 1017.2 |
| 20260502115910 | 30 | 112 | 1.6 | 0.0 | 0.00 | 0.00 | 0.00 | 21 | 1017.3 |
| 20260502115707 | 30 | 112 | 8.0 | 0.0 | 0.00 | 0.00 | 0.00 | 22 | 1017.3 |
| 20260502115510 | 30 | 112 | 8.0 | 0.0 | 0.00 | 0.00 | 0.00 | 21 | 1017.3 |
| 20260502115310 | 30 | 135 | 4.8 | 0.0 | 0.00 | 0.00 | 0.00 | 21 | 1017.3 |
| 20260502115111 | 30 | 135 | 4.8 | 0.0 | 0.00 | 0.00 | 0.00 | 21 | 1017.4 |
| 20260502114910 | 31 | 158 | 1.6 | 0.0 | 0.00 | 0.00 | 0.00 | 21 | 1017.4 |
| 20260502114707 | 31 | 158 | 1.6 | 0.0 | 0.00 | 0.00 | 0.00 | 21 | 1017.5 |
| 20260502114208 | 31 | 135 | 0.0 | 0.0 | 0.00 | 0.00 | 0.00 | 22 | 1017.5 |
| 20260502114010 | 31 | 112 | 0.0 | 0.0 | 0.00 | 0.00 | 0.00 | 22 | 1017.6 |
| 20260502113810 | 31 | 112 | 3.2 | 0.0 | 0.00 | 0.00 | 0.00 | 22 | 1017.7 |
| 20260502113610 | 31 | 112 | 3.2 | 0.0 | 0.00 | 0.00 | 0.00 | 22 | 1017.7 |
| 20260502113410 | 31 | 68 | 0.0 | 0.0 | 0.00 | 0.00 | 0.00 | 22 | 1017.8 |
| 20260502113210 | 31 | 112 | 0.0 | 0.0 | 0.00 | 0.00 | 0.00 | 22 | 1017.8 |
| 20260502112907 | 30 | 135 | 1.6 | 0.0 | 0.00 | 0.00 | 0.00 | 22 | 1017.9 |
| 20260502112710 | 30 | 45 | 0.0 | 0.0 | 0.00 | 0.00 | 0.00 | 22 | 1018.0 |
| 20260502112510 | 30 | 112 | 3.2 | 0.0 | 0.00 | 0.00 | 0.00 | 23 | 1018.0 |
| 20260502112316 | 30 | 112 | 3.2 | 0.0 | 0.00 | 0.00 | 0.00 | 23 | 1018.0 |
| 20260502112106 | 30 | 112 | 0.0 | 0.0 | 0.00 | 0.00 | 0.00 | 22 | 1018.1 |
| 20260502111911 | 30 | 112 | 0.0 | 0.0 | 0.00 | 0.00 | 0.00 | 22 | 1018.2 |
| 20260502111708 | 30 | 112 | 0.0 | 0.0 | 0.00 | 0.00 | 0.00 | 22 | 1018.1 |
| 20260502111510 | 30 | 90 | 0.0 | 0.0 | 0.00 | 0.00 | 0.00 | 23 | 1018.1 |
| 20260502111307 | 29 | 90 | 0.0 | 0.0 | 0.00 | 0.00 | 0.00 | 23 | 1018.2 |
| 20260502111108 | 28 | 135 | 1.6 | 0.0 | 0.00 | 0.00 | 0.00 | 25 | 1018.3 |
| 20260502110907 | 28 | 112 | 0.0 | 0.0 | 0.00 | 0.00 | 0.00 | 25 | 1018.2 |
| 20260502110706 | 28 | 90 | 0.0 | 0.0 | 0.00 | 0.00 | 0.00 | 26 | 1018.3 |
| 20260502110511 | 28 | 90 | 0.0 | 0.0 | 0.00 | 0.00 | 0.00 | 26 | 1018.3 |
| 20260502110310 | 28 | 135 | 0.0 | 0.0 | 0.00 | 0.00 | 0.00 | 26 | 1018.4 |
| 20260502110209 | 28 | 135 | 0.0 | 0.0 | 0.00 | 0.00 | 0.00 | 26 | 1018.4 |
| 20260502105908 | 27 | 135 | 0.0 | 0.0 | 0.00 | 0.00 | 0.00 | 26 | 1018.4 |
| 20260502105708 | 27 | 135 | 0.0 | 0.0 | 0.00 | 0.00 | 0.00 | 27 | 1018.5 |
| 20260502105510 | 26 | 90 | 0.0 | 0.0 | 0.00 | 0.00 | 0.00 | 27 | 1018.5 |
| 20260502105311 | 26 | 112 | 0.0 | 0.0 | 0.00 | 0.00 | 0.00 | 28 | 1018.5 |
| 20260502105114 | 26 | 112 | 0.0 | 0.0 | 0.00 | 0.00 | 0.00 | 28 | 1018.5 |
| 20260502104911 | 26 | 112 | 0.0 | 0.0 | 0.00 | 0.00 | 0.00 | 28 | 1018.5 |
| 20260502104707 | 26 | 90 | 0.0 | 0.0 | 0.00 | 0.00 | 0.00 | 28 | 1018.6 |
| 20260502104511 | 25 | 45 | 0.0 | 0.0 | 0.00 | 0.00 | 0.00 | 28 | 1018.7 |
| 20260502104309 | 25 | 135 | 0.0 | 0.0 | 0.00 | 0.00 | 0.00 | 28 | 1018.7 |
| 20260502104116 | 25 | 135 | 0.0 | 0.0 | 0.00 | 0.00 | 0.00 | 29 | 1018.7 |
| 20260502103912 | 25 | 158 | 0.0 | 0.0 | 0.00 | 0.00 | 0.00 | 29 | 1018.8 |
| 20260502103707 | 25 | 112 | 0.0 | 0.0 | 0.00 | 0.00 | 0.00 | 28 | 1018.9 |
| 20260502103508 | 25 | 112 | 0.0 | 0.0 | 0.00 | 0.00 | 0.00 | 29 | 1018.9 |
| 20260502103310 | 24 | 90 | 1.6 | 0.0 | 0.00 | 0.00 | 0.00 | 31 | 1019.0 |
| 20260502103110 | 23 | 135 | 3.2 | 0.0 | 0.00 | 0.00 | 0.00 | 31 | 1019.0 |
| 20260502102913 | 23 | 90 | 0.0 | 0.0 | 0.00 | 0.00 | 0.00 | 32 | 1019.0 |
| 20260502102712 | 23 | 90 | 0.0 | 0.0 | 0.00 | 0.00 | 0.00 | 31 | 1019.0 |
| 20260502102509 | 23 | 90 | 0.0 | 0.0 | 0.00 | 0.00 | 0.00 | 32 | 1019.1 |
| 20260502102316 | 23 | 90 | 0.0 | 0.0 | 0.00 | 0.00 | 0.00 | 32 | 1019.0 |
| 20260502102112 | 23 | 135 | 1.6 | 0.0 | 0.00 | 0.00 | 0.00 | 32 | 1019.0 |
| 20260502101908 | 23 | 135 | 1.6 | 0.0 | 0.00 | 0.00 | 0.00 | 33 | 1019.1 |
| 20260502101711 | 22 | 135 | 0.0 | 0.0 | 0.00 | 0.00 | 0.00 | 33 | 1019.1 |
| 20260502101512 | 22 | 45 | 0.0 | 0.0 | 0.00 | 0.00 | 0.00 | 33 | 1019.2 |
| 20260502101309 | 22 | 45 | 0.0 | 0.0 | 0.00 | 0.00 | 0.00 | 33 | 1019.2 |
| 20260502101111 | 22 | 68 | 0.0 | 0.0 | 0.00 | 0.00 | 0.00 | 34 | 1019.1 |
| 20260502100907 | 0 | 68 | 0.0 | 0.0 | 0.00 | 0.00 | 0.00 | 33 | 1019.2 |
| 20260502100711 | 22 | 112 | 1.6 | 0.0 | 0.00 | 0.00 | 0.00 | 34 | 1019.3 |
| 20260502100410 | 22 | 90 | 0.0 | 0.0 | 0.00 | 0.00 | 0.00 | 34 | 1019.3 |
| 20260502100214 | 22 | 112 | 0.0 | 0.0 | 0.00 | 0.00 | 0.00 | 34 | 1019.4 |
| 20260502091415 | 21 | 68 | 0.0 | 0.0 | 0.00 | 0.00 | 0.00 | 36 | 1020.2 |
| 20260502091213 | 21 | 68 | 0.0 | 0.0 | 0.00 | 0.00 | 0.00 | 36 | 1020.2 |
| 20260502091011 | 20 | 68 | 0.0 | 0.0 | 0.00 | 0.00 | 0.00 | 36 | 1020.2 |
| 20260502090811 | 20 | 135 | 0.0 | 0.0 | 0.00 | 0.00 | 0.00 | 36 | 1020.2 |
| 20260502090614 | 20 | 135 | 0.0 | 0.0 | 0.00 | 0.00 | 0.00 | 36 | 1020.2 |
| 20260502090411 | 20 | 135 | 0.0 | 0.0 | 0.00 | 0.00 | 0.00 | 36 | 1020.2 |
| 20260502090210 | 20 | 135 | 0.0 | 0.0 | 0.00 | 0.00 | 0.00 | 36 | 1020.2 |
| 20260502071510 | 16 | 0 | 0.0 | 0.0 | 0.00 | 0.00 | 0.00 | 46 | 1021.4 |
| 20260502071311 | 16 | 0 | 0.0 | 0.0 | 0.00 | 0.00 | 0.00 | 46 | 1021.3 |
| 20260502071111 | 16 | 0 | 0.0 | 0.0 | 0.00 | 0.00 | 0.00 | 47 | 1021.4 |
| 20260502070910 | 16 | 0 | 0.0 | 0.0 | 0.00 | 0.00 | 0.00 | 47 | 1021.5 |
| 20260502070707 | 16 | 0 | 0.0 | 0.0 | 0.00 | 0.00 | 0.00 | 48 | 1021.5 |
| 20260502070510 | 16 | 0 | 0.0 | 0.0 | 0.00 | 0.00 | 0.00 | 48 | 1021.6 |
| 20260502070412 | 16 | 0 | 0.0 | 0.0 | 0.00 | 0.00 | 0.00 | 48 | 1021.6 |
| 20260502070214 | 16 | 0 | 0.0 | 0.0 | 0.00 | 0.00 | 0.00 | 48 | 1021.6 |
| 20260502070015 | 16 | 0 | 0.0 | 0.0 | 0.00 | 0.00 | 0.00 | 48 | 1021.6 |
| 20260502065811 | 16 | 0 | 0.0 | 0.0 | 0.00 | 0.00 | 0.00 | 48 | 1021.6 |
| 20260502065611 | 16 | 0 | 0.0 | 0.0 | 0.00 | 0.00 | 0.00 | 48 | 1021.6 |
| 20260502065407 | 16 | 0 | 0.0 | 0.0 | 0.00 | 0.00 | 0.00 | 48 | 1021.6 |
| 20260502065207 | 16 | 0 | 0.0 | 0.0 | 0.00 | 0.00 | 0.00 | 49 | 1021.6 |
| 20260502065110 | 16 | 0 | 0.0 | 0.0 | 0.00 | 0.00 | 0.00 | 49 | 1021.7 |
| 20260502064907 | 16 | 0 | 0.0 | 0.0 | 0.00 | 0.00 | 0.00 | 49 | 1021.7 |
| 20260502064708 | 16 | 0 | 0.0 | 0.0 | 0.00 | 0.00 | 0.00 | 48 | 1021.7 |
| 20260502064508 | 16 | 0 | 0.0 | 0.0 | 0.00 | 0.00 | 0.00 | 48 | 1021.7 |
| 20260502064310 | 16 | 0 | 0.0 | 0.0 | 0.00 | 0.00 | 0.00 | 48 | 1021.7 |
| 20260502064131 | 16 | 0 | 0.0 | 0.0 | 0.00 | 0.00 | 0.00 | 48 | 1021.8 |
| 20260502063907 | 16 | 0 | 0.0 | 0.0 | 0.00 | 0.00 | 0.00 | 48 | 1021.7 |
| 20260502063810 | 16 | 0 | 0.0 | 0.0 | 0.00 | 0.00 | 0.00 | 48 | 1021.7 |
| 20260502063607 | 16 | 0 | 0.0 | 0.0 | 0.00 | 0.00 | 0.00 | 48 | 1021.8 |
| 20260502063410 | 16 | 0 | 0.0 | 0.0 | 0.00 | 0.00 | 0.00 | 48 | 1021.7 |
| 20260502063207 | 16 | 0 | 0.0 | 0.0 | 0.00 | 0.00 | 0.00 | 48 | 1021.7 |
| 20260502063008 | 16 | 0 | 0.0 | 0.0 | 0.00 | 0.00 | 0.00 | 49 | 1021.7 |
| 20260502062813 | 15 | 0 | 0.0 | 0.0 | 0.00 | 0.00 | 0.00 | 49 | 1021.7 |
| 20260502062611 | 15 | 0 | 0.0 | 0.0 | 0.00 | 0.00 | 0.00 | 49 | 1021.7 |
| 20260502062410 | 15 | 0 | 0.0 | 0.0 | 0.00 | 0.00 | 0.00 | 49 | 1021.7 |
| 20260502062118 | 15 | 0 | 0.0 | 0.0 | 0.00 | 0.00 | 0.00 | 50 | 1021.7 |
| 20260502061909 | 15 | 0 | 0.0 | 0.0 | 0.00 | 0.00 | 0.00 | 50 | 1021.7 |
| 20260502061707 | 15 | 0 | 0.0 | 0.0 | 0.00 | 0.00 | 0.00 | 52 | 1021.7 |
| 20260502061409 | 15 | 0 | 0.0 | 0.0 | 0.00 | 0.00 | 0.00 | 52 | 1021.7 |
| 20260502061209 | 15 | 0 | 0.0 | 0.0 | 0.00 | 0.00 | 0.00 | 53 | 1021.7 |
| 20260502061009 | 15 | 0 | 0.0 | 0.0 | 0.00 | 0.00 | 0.00 | 53 | 1021.7 |
| 20260502060709 | 15 | 0 | 0.0 | 0.0 | 0.00 | 0.00 | 0.00 | 57 | 1021.8 |
| 20260502060512 | 14 | 0 | 0.0 | 0.0 | 0.00 | 0.00 | 0.00 | 57 | 1021.8 |
| 20260502060307 | 14 | 0 | 0.0 | 0.0 | 0.00 | 0.00 | 0.00 | 57 | 1021.8 |
| 20260502060108 | 14 | 0 | 0.0 | 0.0 | 0.00 | 0.00 | 0.00 | 57 | 1021.8 |
| 20260502055907 | 14 | 0 | 0.0 | 0.0 | 0.00 | 0.00 | 0.00 | 57 | 1021.8 |
| 20260502055714 | 13 | 0 | 0.0 | 0.0 | 0.00 | 0.00 | 0.00 | 59 | 1021.8 |
| 20260502055507 | 12 | 0 | 0.0 | 0.0 | 0.00 | 0.00 | 0.00 | 61 | 1021.9 |
| 20260502055310 | 12 | 292 | 0.0 | 0.0 | 0.00 | 0.00 | 0.00 | 64 | 1021.9 |
| 20260502055107 | 11 | 292 | 0.0 | 0.0 | 0.00 | 0.00 | 0.00 | 66 | 1021.9 |
| 20260502054907 | 11 | 292 | 0.0 | 0.0 | 0.00 | 0.00 | 0.00 | 68 | 1021.8 |
| 20260502054707 | 9 | 292 | 0.0 | 0.0 | 0.00 | 0.00 | 0.00 | 72 | 1022.0 |
| 20260502054509 | 9 | 292 | 0.0 | 0.0 | 0.00 | 0.00 | 0.00 | 72 | 1022.0 |
| 20260502054309 | 8 | 338 | 0.0 | 0.0 | 0.00 | 0.00 | 0.00 | 75 | 1021.9 |
| 20260502054112 | 7 | 338 | 0.0 | 0.0 | 0.00 | 0.00 | 0.00 | 76 | 1022.0 |
| 20260502054014 | 7 | 338 | 0.0 | 0.0 | 0.00 | 0.00 | 0.00 | 76 | 1022.0 |
| 20260502053810 | 7 | 338 | 0.0 | 0.0 | 0.00 | 0.00 | 0.00 | 77 | 1022.0 |
| 20260502053609 | 6 | 338 | 0.0 | 0.0 | 0.00 | 0.00 | 0.00 | 76 | 1022.0 |
| 20260502053418 | 6 | 338 | 0.0 | 0.0 | 0.00 | 0.00 | 0.00 | 75 | 1022.0 |
| 20260502053210 | 5 | 270 | 0.0 | 0.0 | 0.00 | 0.00 | 0.00 | 74 | 1022.0 |
| 20260502053010 | 5 | 270 | 0.0 | 0.0 | 0.00 | 0.00 | 0.00 | 75 | 1022.0 |
| 20260502052815 | 5 | 270 | 0.0 | 0.0 | 0.00 | 0.00 | 0.00 | 76 | 1021.9 |
| 20260502052506 | 5 | 270 | 0.0 | 0.0 | 0.00 | 0.00 | 0.00 | 76 | 1022.0 |
| 20260502052309 | 5 | 270 | 0.0 | 0.0 | 0.00 | 0.00 | 0.00 | 76 | 1022.0 |
| 20260502052107 | 5 | 270 | 0.0 | 0.0 | 0.00 | 0.00 | 0.00 | 76 | 1022.1 |
| 20260502051906 | 5 | 270 | 0.0 | 0.0 | 0.00 | 0.00 | 0.00 | 76 | 1022.1 |
| 20260502051716 | 5 | 248 | 0.0 | 0.0 | 0.00 | 0.00 | 0.00 | 76 | 1022.1 |
| 20260502051511 | 5 | 270 | 0.0 | 0.0 | 0.00 | 0.00 | 0.00 | 76 | 1022.0 |
| 20260502051310 | 5 | 270 | 0.0 | 0.0 | 0.00 | 0.00 | 0.00 | 76 | 1022.2 |
| 20260502051106 | 5 | 270 | 0.0 | 0.0 | 0.00 | 0.00 | 0.00 | 76 | 1022.2 |
| 20260502050914 | 5 | 270 | 0.0 | 0.0 | 0.00 | 0.00 | 0.00 | 76 | 1022.2 |
| 20260502050706 | 5 | 270 | 0.0 | 0.0 | 0.00 | 0.00 | 0.00 | 76 | 1022.2 |
| 20260502050507 | 5 | 270 | 0.0 | 0.0 | 0.00 | 0.00 | 0.00 | 75 | 1022.3 |
| 20260502050323 | 5 | 248 | 0.0 | 0.0 | 0.00 | 0.00 | 0.00 | 76 | 1022.1 |
| 20260502050210 | 5 | 248 | 0.0 | 0.0 | 0.00 | 0.00 | 0.00 | 76 | 1022.1 |
| 20260502050011 | 5 | 248 | 0.0 | 0.0 | 0.00 | 0.00 | 0.00 | 75 | 1022.1 |
| 20260502045712 | 5 | 248 | 0.0 | 0.0 | 0.00 | 0.00 | 0.00 | 75 | 1022.1 |
| 20260502045509 | 5 | 270 | 0.0 | 0.0 | 0.00 | 0.00 | 0.00 | 75 | 1022.1 |
| 20260502045307 | 5 | 270 | 0.0 | 0.0 | 0.00 | 0.00 | 0.00 | 75 | 1022.2 |
| 20260502045107 | 5 | 248 | 0.0 | 0.0 | 0.00 | 0.00 | 0.00 | 75 | 1022.1 |
| 20260502044906 | 5 | 248 | 0.0 | 0.0 | 0.00 | 0.00 | 0.00 | 75 | 1022.1 |
| 20260502044711 | 5 | 270 | 0.0 | 0.0 | 0.00 | 0.00 | 0.00 | 75 | 1022.0 |
| 20260502044510 | 5 | 270 | 0.0 | 0.0 | 0.00 | 0.00 | 0.00 | 75 | 1022.1 |
| 20260502044411 | 5 | 270 | 0.0 | 0.0 | 0.00 | 0.00 | 0.00 | 75 | 1022.0 |
| 20260502044249 | 5 | 270 | 0.0 | 0.0 | 0.00 | 0.00 | 0.00 | 75 | 1022.1 |
| 20260502044012 | 5 | 270 | 0.0 | 0.0 | 0.00 | 0.00 | 0.00 | 75 | 1022.1 |
| 20260502043810 | 5 | 270 | 0.0 | 0.0 | 0.00 | 0.00 | 0.00 | 75 | 1022.1 |
| 20260502043608 | 5 | 270 | 0.0 | 0.0 | 0.00 | 0.00 | 0.00 | 75 | 1022.1 |
| 20260502043409 | 5 | 270 | 0.0 | 0.0 | 0.00 | 0.00 | 0.00 | 75 | 1022.0 |
| 20260502043214 | 5 | 270 | 0.0 | 0.0 | 0.00 | 0.00 | 0.00 | 75 | 1022.2 |
| 20260502042909 | 5 | 270 | 0.0 | 0.0 | 0.00 | 0.00 | 0.00 | 75 | 1022.1 |
| 20260502042706 | 5 | 270 | 0.0 | 0.0 | 0.00 | 0.00 | 0.00 | 75 | 1022.1 |
| 20260502042511 | 5 | 270 | 0.0 | 0.0 | 0.00 | 0.00 | 0.00 | 75 | 1022.1 |
| 20260502042307 | 5 | 248 | 0.0 | 0.0 | 0.00 | 0.00 | 0.00 | 75 | 1022.0 |
| 20260502042110 | 5 | 270 | 0.0 | 0.0 | 0.00 | 0.00 | 0.00 | 75 | 1022.1 |
| 20260502041909 | 5 | 248 | 0.0 | 0.0 | 0.00 | 0.00 | 0.00 | 75 | 1022.2 |
| 20260502041709 | 5 | 248 | 0.0 | 0.0 | 0.00 | 0.00 | 0.00 | 75 | 1022.3 |
| 20260502041611 | 5 | 248 | 0.0 | 0.0 | 0.00 | 0.00 | 0.00 | 75 | 1022.3 |
| 20260502041406 | 5 | 248 | 0.0 | 0.0 | 0.00 | 0.00 | 0.00 | 75 | 1022.2 |
| 20260502041215 | 5 | 248 | 0.0 | 0.0 | 0.00 | 0.00 | 0.00 | 75 | 1022.1 |
| 20260502041012 | 5 | 248 | 0.0 | 0.0 | 0.00 | 0.00 | 0.00 | 75 | 1022.2 |
| 20260502040811 | 5 | 248 | 0.0 | 0.0 | 0.00 | 0.00 | 0.00 | 75 | 1022.3 |
| 20260502040614 | 5 | 248 | 0.0 | 0.0 | 0.00 | 0.00 | 0.00 | 75 | 1022.4 |
| 20260502040441 | 5 | 248 | 0.0 | 0.0 | 0.00 | 0.00 | 0.00 | 75 | 1022.3 |
| 20260501195809 | 11 | 270 | 0.0 | 0.0 | 0.00 | 0.00 | 0.00 | 49 | 1022.0 |
| 20260501195617 | 11 | 292 | 1.6 | 0.0 | 0.00 | 0.00 | 0.00 | 49 | 1021.8 |
| 20260501195315 | 11 | 292 | 0.0 | 0.0 | 0.00 | 0.00 | 0.00 | 49 | 1021.8 |
| 20260501195114 | 11 | 292 | 0.0 | 0.0 | 0.00 | 0.00 | 0.00 | 49 | 1021.8 |
| 20260501194909 | 11 | 292 | 1.6 | 0.0 | 0.00 | 0.00 | 0.00 | 49 | 1021.7 |
| 20260501194707 | 12 | 270 | 0.0 | 0.0 | 0.00 | 0.00 | 0.00 | 49 | 1021.7 |
| 20260501194510 | 12 | 270 | 0.0 | 0.0 | 0.00 | 0.00 | 0.00 | 49 | 1021.7 |
| 20260501194311 | 12 | 292 | 1.6 | 0.0 | 0.00 | 0.00 | 0.00 | 49 | 1021.7 |
| 20260501194008 | 12 | 270 | 0.0 | 0.0 | 0.00 | 0.00 | 0.00 | 48 | 1021.6 |
| 20260501193809 | 12 | 270 | 0.0 | 0.0 | 0.00 | 0.00 | 0.00 | 48 | 1021.6 |
| 20260501193610 | 12 | 270 | 0.0 | 0.0 | 0.00 | 0.00 | 0.00 | 48 | 1021.5 |
| 20260501193409 | 12 | 248 | 0.0 | 0.0 | 0.00 | 0.00 | 0.00 | 48 | 1021.6 |
| 20260501193209 | 12 | 292 | 1.6 | 0.0 | 0.00 | 0.00 | 0.00 | 48 | 1021.5 |
| 20260501193015 | 12 | 248 | 0.0 | 0.0 | 0.00 | 0.00 | 0.00 | 48 | 1021.5 |
| 20260501192813 | 12 | 270 | 0.0 | 0.0 | 0.00 | 0.00 | 0.00 | 48 | 1021.5 |
| 20260501192614 | 12 | 292 | 0.0 | 0.0 | 0.00 | 0.00 | 0.00 | 48 | 1021.5 |
| 20260501192412 | 12 | 292 | 0.0 | 0.0 | 0.00 | 0.00 | 0.00 | 47 | 1021.4 |
| 20260501192211 | 12 | 292 | 1.6 | 0.0 | 0.00 | 0.00 | 0.00 | 47 | 1021.3 |
| 20260501192012 | 12 | 315 | 1.6 | 0.0 | 0.00 | 0.00 | 0.00 | 47 | 1021.4 |
| 20260501191809 | 12 | 270 | 1.6 | 0.0 | 0.00 | 0.00 | 0.00 | 47 | 1021.3 |
| 20260501191607 | 12 | 292 | 1.6 | 0.0 | 0.00 | 0.00 | 0.00 | 47 | 1021.4 |
| 20260501191409 | 12 | 270 | 0.0 | 0.0 | 0.00 | 0.00 | 0.00 | 47 | 1021.3 |
| 20260501191309 | 12 | 270 | 0.0 | 0.0 | 0.00 | 0.00 | 0.00 | 47 | 1021.4 |
| 20260501191111 | 12 | 270 | 1.6 | 0.0 | 0.00 | 0.00 | 0.00 | 46 | 1021.3 |
| 20260501190912 | 12 | 292 | 0.0 | 0.0 | 0.00 | 0.00 | 0.00 | 47 | 1021.3 |
| 20260501190707 | 13 | 270 | 1.6 | 0.0 | 0.00 | 0.00 | 0.00 | 46 | 1021.3 |
| 20260501190512 | 13 | 270 | 0.0 | 0.0 | 0.00 | 0.00 | 0.00 | 46 | 1021.3 |
| 20260501190308 | 13 | 270 | 1.6 | 0.0 | 0.00 | 0.00 | 0.00 | 46 | 1021.3 |
| 20260501190111 | 13 | 270 | 0.0 | 0.0 | 0.00 | 0.00 | 0.00 | 46 | 1021.2 |
| 20260501185926 | 13 | 270 | 3.2 | 0.0 | 0.00 | 0.00 | 0.00 | 45 | 1021.1 |
| 20260501185623 | 13 | 270 | 0.0 | 0.0 | 0.00 | 0.00 | 0.00 | 45 | 1021.1 |
| 20260501185414 | 13 | 270 | 0.0 | 0.0 | 0.00 | 0.00 | 0.00 | 45 | 1021.1 |
| 20260501185208 | 13 | 270 | 0.0 | 0.0 | 0.00 | 0.00 | 0.00 | 45 | 1021.0 |
| 20260501185011 | 13 | 292 | 1.6 | 0.0 | 0.00 | 0.00 | 0.00 | 44 | 1021.0 |
| 20260501184809 | 13 | 315 | 4.8 | 0.0 | 0.00 | 0.00 | 0.00 | 43 | 1021.0 |
| 20260501184715 | 13 | 315 | 4.8 | 0.0 | 0.00 | 0.00 | 0.00 | 43 | 1021.0 |
| 20260501184511 | 13 | 292 | 1.6 | 0.0 | 0.00 | 0.00 | 0.00 | 44 | 1020.9 |
| 20260501184312 | 13 | 292 | 4.8 | 0.0 | 0.00 | 0.00 | 0.00 | 45 | 1020.9 |
| 20260501184111 | 13 | 270 | 3.2 | 0.0 | 0.00 | 0.00 | 0.00 | 45 | 1021.0 |
| 20260501183909 | 13 | 270 | 0.0 | 0.0 | 0.00 | 0.00 | 0.00 | 45 | 1020.8 |
| 20260501183711 | 13 | 292 | 0.0 | 0.0 | 0.00 | 0.00 | 0.00 | 46 | 1020.8 |
| 20260501183511 | 13 | 270 | 0.0 | 0.0 | 0.00 | 0.00 | 0.00 | 46 | 1020.7 |
| 20260501183411 | 13 | 270 | 0.0 | 0.0 | 0.00 | 0.00 | 0.00 | 46 | 1020.7 |
| 20260501183210 | 13 | 248 | 4.8 | 0.0 | 0.00 | 0.00 | 0.00 | 45 | 1020.6 |
| 20260501182811 | 13 | 292 | 1.6 | 0.0 | 0.00 | 0.00 | 0.00 | 45 | 1020.6 |
| 20260501182614 | 13 | 202 | 3.2 | 0.0 | 0.00 | 0.00 | 0.00 | 45 | 1020.5 |
| 20260501182512 | 13 | 270 | 1.6 | 0.0 | 0.00 | 0.00 | 0.00 | 45 | 1020.5 |
| 20260501182307 | 13 | 248 | 0.0 | 0.0 | 0.00 | 0.00 | 0.00 | 45 | 1020.6 |
| 20260501182110 | 13 | 248 | 0.0 | 0.0 | 0.00 | 0.00 | 0.00 | 45 | 1020.5 |
| 20260501181912 | 13 | 270 | 0.0 | 0.0 | 0.00 | 0.00 | 0.00 | 45 | 1020.5 |
| 20260501181706 | 13 | 270 | 3.2 | 0.0 | 0.00 | 0.00 | 0.00 | 44 | 1020.5 |
| 20260501181408 | 13 | 270 | 6.4 | 0.0 | 0.00 | 0.00 | 0.00 | 45 | 1020.4 |
| 20260501181211 | 13 | 270 | 6.4 | 0.0 | 0.00 | 0.00 | 0.00 | 45 | 1020.4 |
| 20260501181009 | 13 | 270 | 4.8 | 0.0 | 0.00 | 0.00 | 0.00 | 45 | 1020.4 |
| 20260501180811 | 13 | 292 | 3.2 | 0.0 | 0.00 | 0.00 | 0.00 | 45 | 1020.3 |
| 20260501180616 | 14 | 270 | 4.8 | 0.0 | 0.00 | 0.00 | 0.00 | 44 | 1020.3 |
| 20260501180411 | 14 | 248 | 0.0 | 0.0 | 0.00 | 0.00 | 0.00 | 43 | 1020.2 |
| 20260501180209 | 14 | 270 | 1.6 | 0.0 | 0.00 | 0.00 | 0.00 | 43 | 1020.3 |
| 20260501175926 | 14 | 270 | 0.0 | 0.0 | 0.00 | 0.00 | 0.00 | 43 | 1020.2 |
| 20260501175606 | 14 | 248 | 3.2 | 0.0 | 0.00 | 0.00 | 0.00 | 43 | 1020.2 |
| 20260501175407 | 14 | 248 | 3.2 | 0.0 | 0.00 | 0.00 | 0.00 | 44 | 1020.1 |
| 20260501175211 | 14 | 248 | 4.8 | 0.0 | 0.00 | 0.00 | 0.00 | 44 | 1020.0 |
| 20260501174910 | 14 | 292 | 0.0 | 0.0 | 0.00 | 0.00 | 0.00 | 44 | 1020.1 |
| 20260501174711 | 14 | 248 | 8.0 | 0.0 | 0.00 | 0.00 | 0.00 | 43 | 1020.0 |
| 20260501174510 | 14 | 248 | 4.8 | 0.0 | 0.00 | 0.00 | 0.00 | 43 | 1019.9 |
| 20260501174311 | 14 | 270 | 0.0 | 0.0 | 0.00 | 0.00 | 0.00 | 43 | 1020.0 |
| 20260501174110 | 14 | 270 | 0.0 | 0.0 | 0.00 | 0.00 | 0.00 | 43 | 1020.0 |
| 20260501173916 | 15 | 270 | 1.6 | 0.0 | 0.00 | 0.00 | 0.00 | 43 | 1019.9 |
| 20260501173607 | 15 | 270 | 8.0 | 0.0 | 0.00 | 0.00 | 0.00 | 43 | 1020.0 |
| 20260501173410 | 15 | 270 | 1.6 | 0.0 | 0.00 | 0.00 | 0.00 | 43 | 1020.0 |
| 20260501173211 | 15 | 270 | 1.6 | 0.0 | 0.00 | 0.00 | 0.00 | 43 | 1019.9 |
| 20260501173010 | 15 | 248 | 4.8 | 0.0 | 0.00 | 0.00 | 0.00 | 43 | 1019.9 |
| 20260501172606 | 15 | 292 | 8.0 | 0.0 | 0.00 | 0.00 | 0.00 | 41 | 1019.9 |
| 20260501172510 | 15 | 292 | 8.0 | 0.0 | 0.00 | 0.00 | 0.00 | 41 | 1019.9 |
| 20260501172110 | 15 | 292 | 0.0 | 0.0 | 0.00 | 0.00 | 0.00 | 42 | 1019.7 |
| 20260501171913 | 15 | 248 | 0.0 | 0.0 | 0.00 | 0.00 | 0.00 | 43 | 1019.7 |
| 20260501171707 | 15 | 292 | 0.0 | 0.0 | 0.00 | 0.00 | 0.00 | 43 | 1019.8 |
| 20260501171511 | 15 | 292 | 0.0 | 0.0 | 0.00 | 0.00 | 0.00 | 43 | 1019.8 |
| 20260501171343 | 15 | 292 | 0.0 | 0.0 | 0.00 | 0.00 | 0.00 | 43 | 1019.7 |
| 20260501171212 | 15 | 292 | 0.0 | 0.0 | 0.00 | 0.00 | 0.00 | 44 | 1019.7 |
| 20260501171009 | 15 | 315 | 1.6 | 0.0 | 0.00 | 0.00 | 0.00 | 43 | 1019.6 |
| 20260501170807 | 15 | 270 | 0.0 | 0.0 | 0.00 | 0.00 | 0.00 | 43 | 1019.7 |
| 20260501170611 | 15 | 292 | 0.0 | 0.0 | 0.00 | 0.00 | 0.00 | 44 | 1019.7 |
| 20260501170412 | 15 | 270 | 0.0 | 0.0 | 0.00 | 0.00 | 0.00 | 45 | 1019.6 |
| 20260501170211 | 15 | 292 | 0.0 | 0.0 | 0.00 | 0.00 | 0.00 | 43 | 1019.6 |
| 20260501170129 | 15 | 292 | 0.0 | 0.0 | 0.00 | 0.00 | 0.00 | 43 | 1019.6 |
| 20260501165710 | 15 | 248 | 0.0 | 0.0 | 0.00 | 0.00 | 0.00 | 44 | 1019.6 |
| 20260501165512 | 15 | 270 | 0.0 | 0.0 | 0.00 | 0.00 | 0.00 | 45 | 1019.6 |
| 20260501165309 | 15 | 270 | 0.0 | 0.0 | 0.00 | 0.00 | 0.00 | 45 | 1019.6 |
| 20260501165110 | 15 | 248 | 0.0 | 0.0 | 0.00 | 0.00 | 0.00 | 45 | 1019.5 |
| 20260501164911 | 15 | 248 | 0.0 | 0.0 | 0.00 | 0.00 | 0.00 | 45 | 1019.5 |
| 20260501164710 | 15 | 270 | 0.0 | 0.0 | 0.00 | 0.00 | 0.00 | 45 | 1019.4 |
| 20260501164410 | 15 | 270 | 0.0 | 0.0 | 0.00 | 0.00 | 0.00 | 45 | 1019.5 |
| 20260501164206 | 15 | 270 | 0.0 | 0.0 | 0.00 | 0.00 | 0.00 | 45 | 1019.5 |
| 20260501164007 | 15 | 248 | 1.6 | 0.0 | 0.00 | 0.00 | 0.00 | 44 | 1019.5 |